GOES 5 [-]

Last updated on July 6, 2021, 3:23 p.m. UTC

1 12472U 81049A   21186.60881414  .00000097  00000-0  00000-0 0  9994
2 12472  12.5304 329.9172 0001892  99.8666 291.2679  1.00266341104723
UTC
Height (km)
Latitude
Longitude
Inclination
Orbital Period
UTC large
Height (km)
Speed (km/s)
/
Latitude / Longitude
Inclination (degrees)
Orbital Period (minutes)
Azimuth
Elevation
Range (km)
Doppler Factor
iOS Compass Heading
iOS Angle